When you browse on this site, cookies collect data to enhance your experience and personalize the content and advertising you see.
Visit our Privacy Policy to learn more. By continuing to use the site, you agree to this use of cookies and data.
  • In Austria
  • List of Countries
  • For 7 days
  • Water Temperature
  • Weather Map
  • News
  • Weather Widgets
  • user-avatar
    Login

    Hourly Weather Santa Fe

    Today, 3 June, Wednesday

    Time Temperature Precipitation Wind Pressure Humidity
    00:00 +8°C° 0 mm 2 mps 762 mmHg 81%
    01:00 +7°C° 0 mm 3 mps 762 mmHg 82%
    02:00 +7°C° 0 mm 3 mps 763 mmHg 84%
    03:00 +7°C° 0 mm 2 mps 762 mmHg 85%
    04:00 +6°C° 0 mm 2 mps 762 mmHg 87%
    05:00 +6°C° 0 mm 2 mps 762 mmHg 88%
    06:00 +6°C° 0 mm 2 mps 763 mmHg 86%
    07:00 +7°C° 0 mm 2 mps 763 mmHg 85%
    08:00 +7°C° 0 mm 2 mps 764 mmHg 83%
    09:00 +9°C° 0 mm 3 mps 764 mmHg 75%
    10:00 +12°C° 0 mm 3 mps 765 mmHg 67%
    11:00 +14°C° 0 mm 3 mps 765 mmHg 59%
    12:00 +16°C° 0 mm 3 mps 765 mmHg 57%
    13:00 +17°C° 0 mm 3 mps 764 mmHg 55%
    14:00 +17°C° 0 mm 4 mps 764 mmHg 53%
    15:00 +16°C° 0 mm 3 mps 764 mmHg 59%
    16:00 +14°C° 0 mm 3 mps 764 mmHg 65%
    17:00 +13°C° 0 mm 3 mps 764 mmHg 71%
    18:00 +12°C° 0 mm 3 mps 765 mmHg 75%
    19:00 +11°C° 0 mm 3 mps 766 mmHg 80%
    20:00 +10°C° 0 mm 3 mps 766 mmHg 84%
    21:00 +10°C° 0 mm 3 mps 766 mmHg 86%
    22:00 +10°C° 0 mm 2 mps 767 mmHg 87%
    23:00 +9°C° 0 mm 2 mps 767 mmHg 89%

    Tomorrow, 4 June, Thursday

    Time Temperature Precipitation Wind Pressure Humidity
    00:00 +9°C° 0 mm 2 mps 767 mmHg 90%
    01:00 +9°C° 0 mm 2 mps 767 mmHg 91%
    02:00 +8°C° 0 mm 2 mps 766 mmHg 91%
    03:00 +8°C° 0 mm 2 mps 766 mmHg 92%
    04:00 +8°C° 0 mm 2 mps 766 mmHg 92%
    05:00 +8°C° 0 mm 1 mps 766 mmHg 93%
    06:00 +8°C° 0 mm 2 mps 767 mmHg 91%
    07:00 +8°C° 0 mm 2 mps 767 mmHg 90%
    08:00 +8°C° 0 mm 2 mps 767 mmHg 89%
    09:00 +10°C° 0 mm 2 mps 767 mmHg 81%
    10:00 +12°C° 0 mm 3 mps 767 mmHg 73%
    11:00 +14°C° 0 mm 3 mps 766 mmHg 66%
    12:00 +16°C° 0 mm 3 mps 766 mmHg 63%
    13:00 +17°C° 0 mm 3 mps 765 mmHg 61%
    14:00 +18°C° 0 mm 3 mps 764 mmHg 59%
    15:00 +17°C° 0 mm 3 mps 764 mmHg 63%
    16:00 +16°C° 0 mm 3 mps 764 mmHg 66%
    17:00 +16°C° 0 mm 3 mps 764 mmHg 70%
    18:00 +14°C° 0 mm 3 mps 763 mmHg 72%
    19:00 +14°C° 0 mm 3 mps 763 mmHg 75%
    20:00 +13°C° 0 mm 3 mps 763 mmHg 77%
    21:00 +13°C° 0 mm 3 mps 763 mmHg 79%
    22:00 +12°C° 0 mm 3 mps 763 mmHg 81%
    23:00 +12°C° 0 mm 3 mps 762 mmHg 83%

    Day after tomorrow, 5 June, Friday

    Time Temperature Precipitation Wind Pressure Humidity
    00:00 +12°C° 0.1 mm 3 mps 762 mmHg 85%
    01:00 +12°C° 0.1 mm 3 mps 762 mmHg 86%
    02:00 +13°C° 0.1 mm 2 mps 761 mmHg 87%
    03:00 +11°C° 1.1 mm 3 mps 761 mmHg 89%
    04:00 +11°C° 1.1 mm 3 mps 760 mmHg 91%
    05:00 +11°C° 1.1 mm 4 mps 760 mmHg 92%
    06:00 +11°C° 1.8 mm 4 mps 760 mmHg 92%
    07:00 +10°C° 1.8 mm 4 mps 760 mmHg 92%
    08:00 +9°C° 1.8 mm 5 mps 760 mmHg 93%
    09:00 +10°C° 1.5 mm 6 mps 759 mmHg 91%
    10:00 +10°C° 1.5 mm 6 mps 759 mmHg 90%
    11:00 +10°C° 1.5 mm 7 mps 759 mmHg 89%
    12:00 +11°C° 2.1 mm 7 mps 758 mmHg 88%
    13:00 +11°C° 2.1 mm 7 mps 757 mmHg 87%
    14:00 +12°C° 2.1 mm 8 mps 756 mmHg 87%
    15:00 +12°C° 1.5 mm 8 mps 756 mmHg 84%
    16:00 +12°C° 1.5 mm 8 mps 756 mmHg 82%
    17:00 +13°C° 1.5 mm 8 mps 756 mmHg 80%
    18:00 +14°C° 0.1 mm 7 mps 756 mmHg 81%
    19:00 +14°C° 0.1 mm 7 mps 756 mmHg 82%
    20:00 +14°C° 0.1 mm 7 mps 756 mmHg 83%
    21:00 +13°C° 0 mm 6 mps 756 mmHg 84%
    22:00 +13°C° 0 mm 6 mps 756 mmHg 86%
    23:00 +12°C° 0 mm 5 mps 757 mmHg 88%

    6 June, Saturday

    Time Temperature Precipitation Wind Pressure Humidity
    00:00 +12°C° 0 mm 5 mps 757 mmHg 89%
    01:00 +10°C° 0 mm 5 mps 757 mmHg 90%
    02:00 +11°C° 0 mm 4 mps 757 mmHg 91%
    03:00 +11°C° 0 mm 4 mps 757 mmHg 93%
    04:00 +10°C° 0 mm 4 mps 757 mmHg 94%
    05:00 +10°C° 0 mm 4 mps 757 mmHg 95%
    06:00 +10°C° 0 mm 4 mps 758 mmHg 95%
    07:00 +10°C° 0 mm 3 mps 758 mmHg 94%
    08:00 +10°C° 0 mm 3 mps 758 mmHg 94%
    09:00 +12°C° 0 mm 3 mps 758 mmHg 89%
    10:00 +14°C° 0 mm 3 mps 759 mmHg 84%
    11:00 +17°C° 0 mm 3 mps 759 mmHg 79%
    12:00 +18°C° 0 mm 3 mps 758 mmHg 76%
    13:00 +19°C° 0 mm 3 mps 758 mmHg 73%
    14:00 +20°C° 0 mm 3 mps 757 mmHg 70%
    15:00 +19°C° 0 mm 2 mps 757 mmHg 75%
    16:00 +18°C° 0 mm 2 mps 757 mmHg 79%
    17:00 +18°C° 0 mm 1 mps 758 mmHg 84%
    18:00 +16°C° 0 mm 1 mps 758 mmHg 85%
    19:00 +14°C° 0 mm 0 mps 759 mmHg 86%
    20:00 +14°C° 0 mm 0 mps 759 mmHg 87%
    21:00 +13°C° 0 mm 0 mps 760 mmHg 88%
    22:00 +13°C° 0 mm 0 mps 760 mmHg 89%
    23:00 +13°C° 0 mm 0 mps 761 mmHg 89%

    7 June, Sunday

    Time Temperature Precipitation Wind Pressure Humidity
    00:00 +12°C° 0 mm 0 mps 761 mmHg 89%
    01:00 +12°C° 0 mm 0 mps 761 mmHg 90%
    02:00 +12°C° 0 mm 0 mps 762 mmHg 90%
    03:00 +12°C° 0 mm 0 mps 762 mmHg 91%
    04:00 +12°C° 0 mm 0 mps 762 mmHg 91%
    05:00 +11°C° 0 mm 0 mps 762 mmHg 92%
    06:00 +12°C° 0 mm 0 mps 763 mmHg 91%
    07:00 +12°C° 0 mm 0 mps 763 mmHg 91%
    08:00 +14°C° 0 mm 1 mps 764 mmHg 91%
    09:00 +15°C° 0 mm 1 mps 764 mmHg 86%
    10:00 +18°C° 0 mm 1 mps 764 mmHg 80%
    11:00 +19°C° 0 mm 2 mps 764 mmHg 75%
    12:00 +19°C° 0 mm 2 mps 763 mmHg 73%
    13:00 +20°C° 0 mm 2 mps 763 mmHg 71%
    14:00 +21°C° 0 mm 2 mps 762 mmHg 69%
    15:00 +20°C° 0 mm 2 mps 762 mmHg 75%
    16:00 +19°C° 0 mm 2 mps 762 mmHg 80%
    17:00 +17°C° 0 mm 2 mps 762 mmHg 86%
    18:00 +17°C° 0 mm 2 mps 762 mmHg 88%
    19:00 +16°C° 0 mm 2 mps 762 mmHg 90%
    20:00 +15°C° 0 mm 2 mps 762 mmHg 92%
    21:00 +15°C° 0 mm 2 mps 762 mmHg 93%
    22:00 +15°C° 0 mm 2 mps 762 mmHg 94%
    23:00 +14°C° 0 mm 2 mps 762 mmHg 94%

    8 June, Monday

    Time Temperature Precipitation Wind Pressure Humidity
    00:00 +14°C° 0 mm 2 mps 762 mmHg 95%
    01:00 +14°C° 0 mm 2 mps 762 mmHg 95%
    02:00 +13°C° 0 mm 2 mps 762 mmHg 95%
    03:00 +13°C° 0 mm 2 mps 762 mmHg 94%
    04:00 +13°C° 0 mm 2 mps 761 mmHg 94%
    05:00 +13°C° 0 mm 1 mps 761 mmHg 94%
    06:00 +13°C° 0 mm 2 mps 761 mmHg 93%
    07:00 +13°C° 0 mm 3 mps 761 mmHg 92%
    08:00 +13°C° 0 mm 3 mps 761 mmHg 91%
    09:00 +14°C° 0 mm 3 mps 761 mmHg 86%
    10:00 +17°C° 0 mm 4 mps 761 mmHg 82%
    11:00 +18°C° 0 mm 4 mps 761 mmHg 77%
    12:00 +19°C° 0 mm 4 mps 760 mmHg 74%
    13:00 +20°C° 0 mm 3 mps 759 mmHg 71%
    14:00 +21°C° 0 mm 3 mps 759 mmHg 69%
    15:00 +20°C° 0 mm 3 mps 758 mmHg 74%
    16:00 +19°C° 0 mm 3 mps 758 mmHg 80%
    17:00 +18°C° 0 mm 2 mps 757 mmHg 85%
    18:00 +17°C° 0 mm 2 mps 757 mmHg 88%
    19:00 +16°C° 0 mm 2 mps 757 mmHg 90%
    20:00 +16°C° 0 mm 2 mps 757 mmHg 92%
    21:00 +16°C° 0 mm 2 mps 757 mmHg 91%
    22:00 +16°C° 0 mm 2 mps 757 mmHg 90%
    23:00 +16°C° 0 mm 2 mps 757 mmHg 89%
    Show more